Location: Betz
(49.1556°N, 2.9558°E)
Time: 00:00:59
(UTC+00:00)

USA 234 - Pass Details

Date: 18 September 2019
Orbit: 1103 x 1105 km, 123.0° (Epoch: 06 October)

Event Time Altitude Azimuth Distance (km) Brightness Sun altitude
Exits shadow 22:00:32 63° 7° (N) 1,218 3.5 -34.6°
Drops below altitude 10° 22:06:40 10° 304° (NW) 2,968 6.2 -35.1°
Sets 22:09:10 0° 301° (WNW) 3,927 6.9 -35.3°
